Theta_e
313 313 312 309 308 307 307 308 308 309 309 309 308 310 310 309 310 312 310 307 306 305 305 305 304 308 315 314 313 315 320 322 322 322 324 323 328 323 322 326 328 326 330 342 349
310 310 310 310 310 310 311 311 311 312 312 312 311 310 311 310 309 312 310 312 310 306 305 305 305 308 315 315 313 315 318 321 321 322 323 324 328 326 326 327 328 329 327 344 348
314 309 310 311 311 311 312 312 312 312 311 311 312 312 311 311 309 309 321 319 315 313 305 304 307 310 315 311 314 314 315 318 319 320 323 324 327 329 328 329 327 328 326 333 350
313 314 312 311 311 311 312 312 312 311 310 311 311 312 311 310 313 315 309 309 313 316 305 307 309 309 315 315 312 314 314 315 317 321 324 325 325 330 330 328 327 326 322 323 333
310 311 312 312 313 313 312 312 312 312 310 311 311 311 311 309 310 311 311 311 315 316 308 306 309 309 312 314 314 314 315 314 316 319 323 325 326 328 332 330 329 326 324 323 323
308 308 307 307 307 307 307 308 309 310 310 311 311 311 309 310 310 311 312 315 314 312 311 305 309 310 310 312 313 314 314 315 315 319 323 325 327 327 330 330 330 326 324 324 324
307 307 307 306 307 308 308 308 309 310 311 311 311 311 308 311 311 312 311 313 309 312 306 305 310 310 312 313 311 314 314 314 316 316 320 325 327 327 327 329 330 326 325 324 325
306 306 306 306 307 308 309 309 310 311 312 312 311 310 309 310 311 311 312 313 308 314 305 306 309 311 313 312 312 314 313 315 315 316 319 323 324 327 326 328 328 323 321 322 325
305 305 305 306 307 308 309 309 310 312 311 311 310 309 310 312 312 312 313 311 308 307 305 307 308 310 311 315 315 313 314 314 315 316 318 323 322 322 322 324 326 326 324 324 327
303 304 305 305 307 308 308 309 312 311 312 312 310 310 312 315 315 313 314 308 305 308 310 309 309 311 312 314 317 316 314 314 314 315 318 318 318 319 319 320 321 327 326 322 323
301 302 304 305 306 307 308 312 313 313 311 313 313 313 316 318 318 317 313 308 308 309 311 309 311 311 313 314 315 317 315 316 316 315 316 317 318 319 318 322 323 322 321 322 326
302 301 303 304 305 306 309 313 312 314 315 316 315 314 316 316 317 314 312 312 310 310 310 310 311 312 312 314 315 316 316 317 317 316 316 317 318 319 319 319 319 320 320 320 324
301 301 301 301 304 307 314 316 314 314 315 316 315 316 316 317 318 314 312 313 314 312 311 314 314 313 314 316 315 316 317 317 317 317 317 318 317 318 317 317 316 316 318 318 318
301 301 301 302 305 309 308 313 315 314 319 317 317 316 316 317 319 318 313 314 313 316 315 316 316 316 316 317 317 318 317 317 317 318 319 317 320 320 319 317 317 317 315 314 314
301 302 302 305 304 304 307 315 314 314 322 318 319 318 317 319 318 317 315 314 316 314 315 315 316 316 316 317 317 318 317 317 318 319 318 318 319 320 318 319 319 319 320 318 318
301 301 303 303 304 304 308 313 314 319 321 323 318 319 319 318 317 314 313 315 316 314 314 315 315 317 318 317 317 316 316 316 316 318 320 320 319 319 319 319 321 321 318 317 318
301 301 301 304 304 305 312 311 319 321 317 325 320 319 320 320 318 316 315 316 319 319 317 316 316 317 316 318 318 316 318 319 319 319 319 316 318 319 318 320 320 320 318 317 317
301 301 303 304 306 305 313 315 320 319 318 318 319 318 320 319 319 318 315 315 318 318 318 319 316 317 319 320 320 320 318 320 320 320 319 318 319 322 320 317 316 317 317 316 315
301 303 304 308 313 307 310 320 318 318 318 322 319 320 319 318 319 318 317 317 318 318 318 319 317 319 320 320 320 320 321 317 320 319 320 320 321 322 320 319 318 317 316 315 315
304 303 306 314 315 307 314 319 318 317 321 321 323 321 323 318 319 319 318 318 317 317 318 319 321 320 321 320 320 321 318 322 322 323 321 321 323 324 322 321 319 318 316 315 314
305 305 310 315 310 312 319 318 318 318 318 319 322 323 322 322 321 319 319 321 319 317 317 317 320 321 320 320 322 321 323 322 321 322 323 321 321 320 322 320 319 317 315 314 313
304 307 309 313 316 317 319 317 317 317 316 319 321 320 322 321 324 324 322 322 319 318 320 317 320 322 320 318 317 319 321 323 328 326 323 324 323 317 318 317 317 316 314 312 312
305 306 310 314 316 317 316 316 316 318 318 319 321 320 320 320 321 321 320 316 319 321 321 322 321 323 322 320 319 321 321 321 321 323 325 324 323 316 316 316 315 315 314 312 311
306 308 311 312 313 314 315 316 317 316 317 319 319 318 318 317 316 319 318 316 317 319 320 320 320 321 324 320 320 322 322 322 322 325 322 322 322 319 317 317 315 314 313 312 311
306 308 311 312 311 313 313 313 316 314 315 318 319 319 319 318 318 317 317 317 315 315 313 318 321 319 318 318 317 319 320 320 321 320 321 320 322 321 320 318 315 313 312 312 311
306 309 309 308 310 311 313 314 314 316 315 316 319 317 317 316 316 315 315 316 318 315 315 314 319 317 316 314 314 316 316 317 317 317 318 318 318 316 314 313 312 312 311 311 309
305 306 307 308 309 310 312 312 312 311 313 312 314 315 314 313 311 309 311 312 314 316 316 316 317 316 315 313 313 313 313 314 314 314 315 316 315 315 314 313 312 311 310 309 307
Wind_Speed
18 17 17 17 16 17 17 18 19 19 19 20 21 21 21 19 20 22 27 20 16 12 16 12 16 21 17 11 10 12 10 17 23 17 10 6 9 4 6 12 8 9 7 4 16
18 17 17 16 16 17 17 17 18 20 21 22 23 22 21 23 21 26 14 8 9 14 17 17 15 20 10 8 10 11 15 21 10 13 10 9 18 10 3 12 4 11 17 2 18
17 17 17 18 18 18 18 18 20 21 22 23 23 23 21 21 20 3 2 2 2 11 15 13 12 17 12 5 11 10 16 14 13 17 7 11 11 11 6 7 7 17 21 7 13
17 18 19 20 20 21 21 21 21 22 23 24 24 22 20 15 6 5 2 6 10 10 18 18 13 15 11 13 12 10 13 17 13 15 13 12 8 16 16 16 10 19 14 12 11
18 19 21 21 22 23 24 24 23 24 23 24 23 18 15 10 25 15 17 13 11 12 19 21 18 18 16 14 14 15 14 6 16 20 6 7 11 10 28 41 19 20 23 20 17
20 21 22 23 23 23 24 25 24 24 23 24 21 11 12 9 11 8 5 6 10 14 22 25 14 16 14 7 19 10 19 21 9 18 13 11 10 10 24 35 30 25 28 27 25
22 23 23 24 24 24 23 23 23 23 25 23 17 11 14 27 11 11 9 7 8 12 24 25 11 18 13 12 10 25 14 14 27 11 14 9 11 19 19 31 40 28 33 32 30
23 23 23 24 24 23 21 23 24 27 19 14 11 12 13 9 13 17 14 9 1 11 17 25 12 15 5 5 4 14 13 16 18 18 8 9 25 18 28 38 37 27 27 32 37
24 24 24 25 24 23 23 24 25 13 7 7 12 10 13 9 15 13 11 5 15 15 10 15 10 16 6 5 4 6 16 20 20 16 16 14 11 8 13 22 34 49 32 34 38
25 25 24 25 24 24 26 24 6 0 6 10 4 5 14 5 6 10 16 13 19 22 11 10 10 6 9 8 11 8 11 10 22 15 21 19 16 12 12 18 24 59 33 34 33
25 24 23 25 25 25 26 6 3 4 14 16 13 8 4 5 5 12 24 20 17 16 11 9 11 14 16 15 13 13 9 15 16 21 18 22 21 20 17 18 17 22 29 40 43
30 27 26 25 26 28 17 6 6 5 12 23 30 27 23 8 1 14 26 11 11 14 11 7 15 14 14 14 13 13 16 11 4 13 15 20 24 22 15 18 25 21 37 39 32
31 27 26 26 25 19 8 7 8 9 6 10 24 21 24 22 12 21 32 12 15 14 17 9 5 16 11 11 13 15 14 11 6 5 9 9 18 16 16 22 22 34 44 43 43
31 29 25 28 17 9 18 7 8 10 5 6 8 10 15 13 8 19 34 18 5 16 12 8 9 10 12 15 14 16 15 15 9 5 7 5 8 11 11 14 10 11 19 27 27
30 29 25 21 27 24 10 7 8 3 6 3 4 4 14 18 13 15 32 18 13 8 8 9 12 11 10 16 17 17 12 15 14 9 4 6 5 6 4 7 7 2 2 3 2
31 30 30 28 26 18 13 10 4 4 8 3 6 9 11 9 6 13 20 14 15 8 3 10 4 5 5 7 14 5 5 5 3 5 10 10 8 7 4 2 1 2 8 9 6
34 34 32 25 27 8 5 12 4 5 7 5 5 9 15 11 10 10 14 17 14 12 10 5 9 5 4 6 5 6 8 6 7 7 7 4 7 0 2 3 4 5 10 15 15
36 35 34 24 15 18 10 5 11 11 14 10 2 6 13 10 13 10 16 17 13 14 8 10 9 9 9 10 7 7 7 7 12 7 8 3 6 3 4 6 7 11 15 17 20
36 33 28 8 10 18 10 11 10 11 5 5 1 5 10 10 9 11 17 19 18 14 8 10 10 3 6 4 5 6 5 2 6 1 4 4 2 1 5 8 10 14 15 16 17
35 31 11 17 8 20 7 18 12 9 3 4 6 3 15 13 9 14 13 12 11 14 10 5 4 2 4 4 6 5 9 4 3 6 8 6 5 6 11 8 8 10 13 14 16
25 14 14 7 15 10 11 17 11 16 11 6 2 4 10 8 9 13 15 4 9 7 7 5 3 3 2 1 5 5 5 4 3 1 6 7 4 0 7 6 9 11 12 12 13
12 5 2 1 3 4 9 10 7 11 21 11 7 10 8 5 3 3 4 3 3 10 9 2 3 4 3 3 4 1 2 3 4 5 1 0 3 3 7 8 11 12 12 11 11
15 8 2 4 3 5 5 12 17 15 13 5 8 5 4 3 2 5 7 3 5 4 12 8 2 2 3 3 3 2 2 3 4 1 9 8 3 6 6 7 8 10 8 7 6
6 4 5 2 1 4 6 9 8 13 6 3 4 5 4 6 3 6 5 4 5 6 11 11 5 5 5 3 3 4 6 6 2 3 4 8 4 9 8 7 7 6 5 3 3
4 3 4 4 6 11 5 3 16 6 6 1 0 2 8 5 2 4 5 7 8 2 4 2 5 4 7 5 4 4 8 7 7 3 5 0 6 5 8 5 5 4 3 1 2
4 4 6 10 10 9 2 3 6 6 5 5 2 4 6 5 4 4 3 2 3 3 3 3 4 4 3 4 2 4 6 7 7 7 9 9 12 7 3 8 6 3 2 4 4
9 11 9 7 4 6 4 8 6 9 7 8 7 5 10 7 6 2 2 9 6 4 3 3 6 3 4 1 2 6 10 12 5 5 7 9 8 1 4 3 1 3 5 2 7
Wind_Direction
331 327 324 322 322 322 323 323 321 320 319 318 313 313 313 307 301 299 290 301 291 268 241 241 204 199 197 195 190 199 224 229 221 225 224 209 174 89 345 8 41 19 320 257 188
332 329 325 323 321 320 320 320 319 316 314 315 311 307 309 310 302 296 304 281 246 237 244 219 208 191 187 198 198 210 228 231 239 233 227 200 195 158 15 342 1 37 6 225 192
327 326 323 320 319 318 316 317 316 314 311 312 309 304 304 310 310 243 113 127 310 246 223 203 214 176 191 186 202 218 237 239 238 235 248 226 214 201 196 269 12 344 346 333 197
319 320 319 318 313 312 311 310 309 309 308 309 308 302 297 301 277 177 172 285 285 275 206 182 177 177 194 202 201 226 224 241 245 232 227 223 230 222 207 243 320 336 333 345 295
325 319 316 313 309 307 305 303 303 302 303 302 303 299 293 269 252 262 278 275 294 264 217 187 177 188 195 204 215 226 222 206 228 247 227 164 205 221 215 231 287 307 312 321 316
331 327 324 318 314 309 304 300 297 296 297 298 292 276 264 256 268 243 248 264 277 244 220 189 205 185 200 219 213 218 233 240 253 234 220 213 193 178 225 224 263 292 297 305 313
328 326 325 322 319 314 309 305 300 297 295 288 273 238 249 254 250 256 248 296 290 234 199 189 228 190 159 201 231 227 251 233 234 243 234 196 230 216 210 223 241 271 285 288 296
324 324 323 324 322 318 311 307 305 302 291 262 235 204 250 265 239 244 260 248 188 180 188 181 198 212 168 149 177 221 228 235 233 222 215 199 249 229 218 219 237 268 279 284 284
323 322 323 323 323 319 313 308 311 304 285 204 172 203 261 246 244 230 218 227 138 147 173 195 209 233 196 164 185 199 226 220 228 218 219 211 255 263 236 209 224 256 273 277 279
326 325 323 320 321 319 315 314 288 2 131 148 182 222 241 225 201 187 176 188 150 143 136 181 201 242 209 199 192 205 223 227 222 204 220 213 231 217 170 200 226 238 274 278 270
325 321 317 314 316 315 315 326 175 211 211 204 204 225 158 165 242 180 168 156 142 165 170 186 205 211 225 207 240 246 246 230 226 213 206 218 226 232 221 211 209 233 266 267 267
328 325 322 316 318 315 300 222 245 279 283 261 240 244 241 225 190 171 166 154 152 180 168 178 223 217 222 237 235 241 260 239 295 192 203 218 230 229 216 223 213 206 240 256 263
329 326 321 320 318 313 272 264 251 264 262 262 233 229 234 218 221 188 177 172 166 173 192 195 214 209 202 239 239 234 244 252 240 154 220 196 229 233 220 228 218 219 226 237 243
327 328 329 321 318 296 302 263 268 282 271 241 213 238 193 179 215 187 185 169 161 190 192 219 216 183 210 230 220 244 229 242 249 224 230 218 217 204 180 198 210 206 218 229 237
324 323 322 322 302 297 307 218 327 147 290 181 169 176 173 178 144 183 188 192 182 164 178 193 179 192 217 229 203 244 225 229 236 230 222 193 235 173 158 210 167 233 70 61 152
319 318 319 313 293 310 273 220 162 242 246 263 157 172 162 197 183 143 175 202 182 156 209 191 195 187 213 202 198 134 142 127 158 208 232 217 231 197 168 124 130 66 25 32 18
319 318 313 299 280 283 259 172 199 228 298 227 196 181 184 177 183 174 177 191 181 183 193 180 204 210 191 208 155 189 185 181 195 201 226 176 201 98 52 28 340 21 53 57 60
321 321 317 312 282 233 182 183 210 215 228 284 67 266 193 160 200 177 177 192 194 193 185 200 213 201 192 219 216 194 216 229 216 193 184 168 210 136 23 53 86 90 79 70 66
327 325 323 331 320 198 205 211 211 219 249 329 359 130 270 191 180 176 192 196 198 192 192 187 216 167 200 174 196 160 207 94 107 33 201 155 107 16 97 85 89 83 74 66 71
333 327 330 327 287 178 210 229 231 220 67 301 215 193 211 216 172 191 180 198 184 200 206 190 148 118 115 136 62 227 135 176 155 193 223 167 185 152 163 127 93 70 75 80 79
339 325 348 335 146 168 215 226 253 266 294 266 242 299 273 182 213 184 179 109 155 151 167 141 192 153 225 38 181 151 162 78 93 358 235 232 174 198 154 131 104 102 99 91 84
340 308 19 130 240 217 245 246 268 262 266 272 192 190 269 335 175 127 134 63 45 148 138 92 89 148 156 351 282 348 116 175 186 184 114 259 143 71 125 125 128 126 119 109 101
323 286 7 256 260 293 294 289 286 270 283 276 221 159 170 271 54 126 170 311 148 131 151 134 73 161 185 186 154 156 86 95 95 95 208 224 158 134 134 125 127 127 122 113 92
311 311 303 293 316 336 339 296 274 333 312 82 308 181 127 198 157 160 136 52 69 88 106 113 128 209 222 87 117 155 145 140 147 194 215 238 177 173 176 152 146 149 136 114 45
249 253 335 310 325 322 286 265 297 271 338 128 310 9 144 27 331 96 108 118 64 41 73 103 137 153 92 101 82 143 165 165 195 176 236 164 232 225 214 201 166 152 178 239 342
273 312 339 298 303 310 304 310 302 294 0 356 281 139 122 140 122 2 233 110 121 73 76 24 110 124 108 83 103 229 240 241 238 242 257 268 274 283 99 132 155 179 272 266 314
315 315 307 279 295 304 324 337 303 277 108 70 26 91 95 102 74 284 11 79 94 113 108 86 133 136 158 136 177 250 238 223 211 208 238 243 277 167 127 136 100 316 309 274 330